Location: Berlin
(52.5170°N, 13.4000°E)
Time: 02:10:54
(UTC+01:00)

ISS - Visible Passes

Search period start: 18 February 2019 00:00
Search period end: 28 February 2019 00:00
Orbit: 403 x 411 km, 51.6° (Epoch: 18 February)

Date Brightness Start Highest point End Pass type
(mag) Time Alt. Az. Time Alt. Az. Time Alt. Az.
26 Feb -1.3 05:36:47 10° S 05:39:09 18° SE 05:41:30 10° E visible
27 Feb -1.0 04:46:32 10° SSE 04:47:50 12° SE 04:49:14 10° ESE visible
27 Feb -2.7 06:20:37 10° SW 06:23:45 42° SSE 06:26:52 10° E visible
